, MO

(GMT )
Kansas City

Weather History for KMKC - August, 2014

Change the Weather History Date:

Friday, August 29, 2014

  Actual Average Record
Temperature  
Mean Temperature 77 °F -  
Max Temperature 86 °F 86 °F 98 °F (2012)
Min Temperature 70 °F 67 °F 59 °F (2004)
Cooling Degree Days 12    
Growing Degree Days 27 (Base 50)    
Moisture  
Dew Point 67 °F    
Average Humidity 74    
Maximum Humidity 91    
Minimum Humidity 55    
Precipitation  
Precipitation 0.70 in - - ()
Sea Level Pressure  
Sea Level Pressure 29.83 in    
Wind  
Wind Speed 8 mph (SSW)    
Max Wind Speed 16 mph    
Max Gust Speed 37 mph    
Visibility 8 miles    
Events Rain , Thunderstorm    
Averages and records for this station are not official NWS values.
T = Trace of Precipitation, MM = Missing Value Source: NWS Daily Summary

Daily Weather History Graph

Daily Weather History Graph

Search for Another Location

Airport or City:

Trip Planner

Search our weather history database for the weather conditions in past years. The results will help you decide how hot, cold, wet, or windy it might be!

Date:

Astronomy

Aug. 29, 2014 Rise Set
Actual Time 6:44 AM CDT 7:53 PM CDT
Civil Twilight 6:16 AM CDT 8:20 PM CDT
Nautical Twilight 5:43 AM CDT 8:53 PM CDT
Astronomical Twilight 5:09 AM CDT 9:27 PM CDT
Moon 10:32 AM CDT (8/29) 9:53 PM CDT (8/29)
Length of Visible Light 14h 04m
Length of Day
13h 09m
Waxing Crescent, 15% of the Moon is Illuminated
Aug 29
Waxing Crescent
Sep 2
First Quarter
Sep 8
Full
Sep 15
Last Quarter
Sep 24
New

Hourly Weather History & Observations

Time (CDT) Temp. Heat Index Dew Point Humidity Pressure Visibility Wind Dir Wind Speed Gust Speed Precip Events Conditions
12:54 AM 80.1 °F 81.5 °F 63.0 °F 56% 29.85 in 10.0 mi SSW 8.1 mph - N/A   Clear
1:54 AM 78.1 °F - 63.0 °F 60% 29.84 in 10.0 mi South 8.1 mph - N/A   Clear
2:54 AM 78.1 °F - 63.0 °F 60% 29.83 in 10.0 mi SSW 6.9 mph - N/A   Partly Cloudy
3:54 AM 77.0 °F - 63.0 °F 62% 29.81 in 10.0 mi South 6.9 mph - N/A   Clear
4:54 AM 75.9 °F - 63.0 °F 64% 29.81 in 10.0 mi SW 8.1 mph - N/A   Clear
5:54 AM 75.0 °F - 64.0 °F 69% 29.82 in 10.0 mi South 5.8 mph - N/A   Mostly Cloudy
6:54 AM 75.0 °F - 64.0 °F 69% 29.84 in 10.0 mi South 3.5 mph - N/A   Mostly Cloudy
7:54 AM 75.9 °F - 64.9 °F 69% 29.84 in 10.0 mi South 4.6 mph - N/A   Clear
8:54 AM 78.1 °F - 64.9 °F 64% 29.84 in 10.0 mi South 6.9 mph - N/A   Clear
9:54 AM 82.0 °F 84.5 °F 66.9 °F 60% 29.84 in 10.0 mi SW 10.4 mph - N/A   Clear
10:54 AM 81.0 °F 82.7 °F 64.9 °F 58% 29.84 in 10.0 mi WSW 9.2 mph - N/A   Clear
11:26 AM 73.0 °F - 66.0 °F 79% 29.89 in 1.8 mi WSW 9.2 mph 21.9 mph 0.05 in Rain Heavy Rain
11:34 AM 72.0 °F - 66.0 °F 81% 29.89 in 3.0 mi SSW 5.8 mph - 0.06 in Rain Light Rain
11:45 AM 72.0 °F - 66.9 °F 84% 29.89 in 2.0 mi South 5.8 mph - 0.11 in Rain Rain
11:54 AM 72.0 °F - 68.0 °F 87% 29.88 in 3.0 mi South 6.9 mph - 0.13 in Rain Light Rain
12:01 PM 72.0 °F - 66.9 °F 84% 29.90 in 2.0 mi South 6.9 mph - 0.02 in Rain Rain
12:54 PM 73.0 °F - 68.0 °F 84% 29.84 in 2.0 mi South 5.8 mph - 0.09 in Rain Light Rain
1:01 PM 73.0 °F - 68.0 °F 84% 29.86 in 10.0 mi SSW 4.6 mph - 0.00 in   Overcast
1:54 PM 75.9 °F - 70.0 °F 82% 29.83 in 10.0 mi SW 10.4 mph - 0.00 in   Partly Cloudy
2:54 PM 81.0 °F 84.1 °F 69.1 °F 67% 29.79 in 10.0 mi SSW 9.2 mph - N/A   Partly Cloudy
3:54 PM 82.9 °F 85.4 °F 66.9 °F 58% 29.78 in 10.0 mi SSW 11.5 mph - N/A   Partly Cloudy
4:54 PM 84.9 °F 87.6 °F 66.9 °F 55% 29.78 in 10.0 mi South 12.7 mph - N/A   Mostly Cloudy
5:54 PM 84.0 °F 87.0 °F 68.0 °F 58% 29.77 in 10.0 mi SSE 9.2 mph - N/A   Clear
6:54 PM 82.9 °F 85.4 °F 66.9 °F 58% 29.76 in 10.0 mi South 10.4 mph - N/A   Clear
7:54 PM 82.0 °F 84.9 °F 68.0 °F 62% 29.75 in 10.0 mi SSE 9.2 mph - N/A Thunderstorm Scattered Clouds
8:20 PM 70.0 °F - 64.9 °F 84% 29.81 in 3.0 mi NNW 16.1 mph 36.8 mph 0.06 in Rain , Thunderstorm Thunderstorms and Rain
8:29 PM 71.6 °F - 64.4 °F 78% 29.83 in 2.0 mi NW 9.2 mph - N/A Rain , Thunderstorm Heavy Thunderstorms and Rain
8:36 PM 71.1 °F - 66.0 °F 84% 29.84 in 1.5 mi WNW 16.1 mph 20.7 mph 0.35 in Rain , Thunderstorm Heavy Thunderstorms and Rain
8:45 PM 71.1 °F - 66.9 °F 87% 29.82 in 1.5 mi Variable 3.5 mph 20.7 mph 0.46 in Rain , Thunderstorm Thunderstorms and Rain
8:49 PM 71.6 °F - 66.2 °F 83% 29.83 in 3.0 mi WSW 6.9 mph - 0.46 in Rain , Thunderstorm Light Thunderstorms and Rain
8:54 PM 73.0 °F - 66.0 °F 79% 29.81 in 10.0 mi NW 6.9 mph - 0.46 in Rain , Thunderstorm Light Thunderstorms and Rain
9:32 PM 73.0 °F - 68.0 °F 84% 29.83 in 10.0 mi South 6.9 mph - 0.00 in   Partly Cloudy
9:54 PM 73.0 °F - 68.0 °F 84% 29.80 in 10.0 mi South 6.9 mph - 0.00 in   Clear
10:33 PM 73.9 °F - 69.1 °F 85% 29.84 in 10.0 mi SSW 6.9 mph - 0.02 in Thunderstorm Mostly Cloudy
10:43 PM 73.9 °F - 69.1 °F 85% 29.85 in 10.0 mi WNW 12.7 mph - 0.02 in Thunderstorm Thunderstorm
10:54 PM 73.0 °F - 68.0 °F 84% 29.82 in 10.0 mi North 5.8 mph - 0.02 in Thunderstorm Thunderstorm
11:01 PM 73.0 °F - 68.0 °F 84% 29.84 in 10.0 mi Variable 5.8 mph - 0.00 in Rain , Thunderstorm Light Rain
11:12 PM 72.0 °F - 69.1 °F 91% 29.84 in 10.0 mi ENE 5.8 mph - 0.00 in   Scattered Clouds
11:31 PM 73.0 °F - 69.1 °F 87% 29.85 in 10.0 mi Calm Calm - 0.00 in Thunderstorm Scattered Clouds
11:54 PM 73.9 °F - 69.1 °F 85% 29.84 in 10.0 mi NNW 3.5 mph - 0.00 in Thunderstorm Overcast